Location: Alpha Ridge Park
(39.3209°N, 76.9128°W)
Time: 12:41:37
(UTC-04:00)

Transit 2A - Pass Details

Date: 27 May 2019
Orbit: 593 x 966 km, 66.7° (Epoch: 18 June)

Event Time Altitude Azimuth Distance (km) Brightness Sun altitude
Rises 16:22:25 0° 332° (NNW) 3,533 9.6 44.4°
Reaches altitude 10° 16:25:03 10° 335° (NNW) 2,541 9.0 43.9°
Maximum altitude 16:30:55 72° 59° (ENE) 858 6.7 42.8°
Drops below altitude 10° 16:36:09 10° 144° (SE) 2,274 8.3 41.8°
Sets 16:38:25 0° 147° (SSE) 3,137 9.0 41.3°
